Hourly Weather Roundup
Issued by NWS Central Illinois

Home | Current Version | Previous Version | Text Only | Print | Product List | Glossary On
Versions: 1 2 3 4 5 6 7 8 9 10 11 12 13 14 15 16 17 18 19 20 21 22 23 24 25 26 27 28 29 30 31 32 33 34 35 36 37 38 39 40 41 42 43 44 45 46 47 48 49 50
000
NZUS43 KILX 262010
HWRILX

AREA WEATHER ROUNDUP
NATIONAL WEATHER SERVICE, LINCOLN IL
200 PM CST FRI DEC 26 2014


CITY           SKY/WX    TMP DP  RH WIND       PRES   REMARKS
BLOOMINGTON    MOSUNNY   53  44  71 SW14      30.02S
CHAMPAIGN      MOSUNNY   52  44  74 S15       30.04S
DECATUR        MOSUNNY   53  43  68 SW15      30.04S
FLORA          MOSUNNY   55  44  67 S15G21    30.10F
GALESBURG      PTSUNNY   53  40  62 SW9       29.96S
JACKSONVILLE   MOSUNNY   57  44  61 S9        29.99S
LACON          MOSUNNY   51  38  62 SW12      29.99S
LAWRENCEVILLE  MOSUNNY   55  43  63 S20       30.12F
LITCHFIELD     SUNNY     51  43  74 S16       30.04S
$$


CITY           SKY/WX    TMP DP  RH WIND       PRES   REMARKS
LINCOLN        MOSUNNY   56  44  62 SW7       30.01S
MACOMB         PTSUNNY   53  43  69 S10       29.99S
MATTOON        MOSUNNY   51  42  71 S13       30.06S
MT CARMEL AP   MOSUNNY   57  43  58 S13       30.12S
OLNEY-NOBLE AP MOSUNNY   52  43  71 S8G18     30.10F
PARIS          PTSUNNY   50  45  80 S14       30.08S
PEORIA         MOSUNNY   54  40  59 SW13      29.99F
PONTIAC        PTSUNNY   53  44  69 SW12      30.01S
RANTOUL        MOSUNNY   54  46  72 S12       30.03F
ROBINSON       PTSUNNY   53  42  68 S10       30.12S
SPRINGFIELD    MOSUNNY   56  43  61 S10       30.02S
TAYLORVILLE    SUNNY     52  43  71 S14       30.04R
$$

...REGIONAL REPORTS...


CITY           SKY/WX    TMP DP  RH WIND       PRES   REMARKS
CHICAGO O`HARE PTSUNNY   49  37  63 SW13G18   29.98S
KANKAKEE       MOSUNNY   53  43  69 SW15      30.02F
MOLINE         PTSUNNY   51  37  58 SW9       29.93F
MOUNT VERNON   MOSUNNY   55  45  67 S20G26    30.10F
PITTSFIELD     MOSUNNY   58  44  60 SW12      29.99S
QUINCY         PTSUNNY   54  42  64 SW8       29.96F
ROCKFORD       CLOUDY    50  36  58 SW9       29.98S
$$


CITY           SKY/WX    TMP DP  RH WIND       PRES   REMARKS
BURLINGTON     PTSUNNY   54  39  57 SW12      29.94F
CEDAR RAPIDS   CLOUDY    44  35  70 SW8       29.92S
DES MOINES     CLOUDY    35  31  85 N8        29.95S FOG     WCI  29
KIRKSVILLE     MOSUNNY   53  41  63 SW10      29.92F
OTTUMWA        CLOUDY    48  36  63 W6        29.92S
ST LOUIS       MOSUNNY   61  42  49 SW14      30.02F
$$


CITY           SKY/WX    TMP DP  RH WIND       PRES   REMARKS
TERRE HAUTE    PTSUNNY   52  41  66 S13       30.10S
EVANSVILLE     SUNNY     57  42  57 SW13      30.16F
INDIANAPOLIS   PTSUNNY   50  40  68 SW10      30.10S
LAFAYETTE      SUNNY     50  40  68 SW13      30.06F
MADISON        PTSUNNY   45  34  65 W6        29.93F
MILWAUKEE      PTSUNNY   47  35  63 SW8       29.96R
$$




USA.gov is the U.S. government's official web portal to all federal, state and local government web resources and services.